Civil Air Patrol

Glenn L. Martin Composite Squadron

Welcome to the Glenn L. Martin Composite

We are the official auxiliary of the United States Air Force.

Our 3 main missions are cadet programs, aerospace education and emergency services.

Click each link to learn more about each mission.

Here is a short video from National Headquarters about CAP


Current METAR for KMTN (Martin State Airport)

KMTN 171445Z 13006KT 10SM SCT100 32/27 A2999

Current TAF for KBWI (Baltimore Washington International)

TAF AMD KBWI 171452Z 1715/1818 22005KT P6SM BKN250 FM172200 23010G18KT P6SM VCSH BKN050 BKN150 FM180000 23006KT 6SM -SHRA VCTS BKN050CB FM180400 25005KT P6SM SCT050 BKN150 FM181200 28005KT P6SM BKN050